Regional Weather Roundup
Issued by NWS

Home | Current Version | Previous Version | Graphics & Text | Print | Product List | Glossary On
Versions: 1 2 3 4 5 6 7 8 9 10 11 12 13 14 15 16 17 18 19 20 21 22 23 24 25 26 27
000
ASUS45 KCYS 231410
RWRWY

WYOMING REGIONAL WEATHER ROUNDUP
NATIONAL WEATHER SERVICE CHEYENNE WY
800 AM MDT TUE MAY 23 2017

NOTE:  "FAIR" INDICATES FEW OR NO CLOUDS BELOW 12,000 FEET
WITH NO SIGNIFICANT WEATHER AND/OR OBSTRUCTIONS TO VISIBILITY.

WYZ001-231500-
YELLOWSTONE NATIONAL PARK

CITY           SKY/WX    TMP DP  RH WIND       PRES   REMARKS
LK YELLOWSTONE   N/A     34  30  85 CALM      30.36F
W YELLOWSTONE  NOT AVBL

$$
WYZ002>013-054>058-071-098>099-231500-
NORTHERN WYOMING

CITY           SKY/WX    TMP DP  RH WIND       PRES   REMARKS
JACKSON        SUNNY     39  32  75 CALM      30.33S
CODY           FAIR      51  34  52 W5        30.24F HAZE
GREYBULL       FAIR      45  38  76 CALM      30.23F
WORLAND        FAIR      46  41  82 CALM      30.23S
SHERIDAN       FAIR      52  40  63 CALM      30.22S
BUFFALO        FAIR      52  38  58 N3        30.24R
GILLETTE       FAIR      51  41  68 NW7       30.21R
HULETT         FAIR      46  36  66 N3        30.21S
NEWCASTLE      FAIR      41  34  75 N6        30.20S

$$
WYZ014>020-022>026-101>103-231500-
CENTRAL WYOMING

CITY           SKY/WX    TMP DP  RH WIND       PRES   REMARKS
BIG PINEY      FAIR      40  33  76 NE5       30.34S
PINEDALE       FAIR      36  32  87 CALM      30.35F
DUBOIS         FAIR      39  28  65 NW8       30.30S WCI  34
LANDER         FAIR      42  36  79 CALM      30.26S
RIVERTON       FAIR      47  37  68 W6        30.26S
CASPER         FAIR      45  39  79 SW10      30.25S
DOUGLAS        CLOUDY    46  38  73 NW15G22   30.23S

$$
WYZ021-027>030-104>119-231500-
SOUTHERN WYOMING

CITY           SKY/WX    TMP DP  RH WIND       PRES   REMARKS
EVANSTON       FAIR      46  38  73 E6        30.32S
KEMMERER         N/A     41  34  75 N8        30.34S
FORT BRIDGER   FAIR      44  35  70 CALM      30.35S
ROCK SPRINGS   FAIR      40  35  83 CALM      30.33S
DIXON            N/A     36  33  89 CALM      30.38R
RAWLINS        FAIR      42  35  76 SW9       30.30S
SARATOGA       FAIR      36  36 100 SE5       30.32S WCI  32
LARAMIE        FAIR      39  33  79 VRB5      30.25S
CHEYENNE       CLOUDY    41  33  73 NW16G25   30.23R
TORRINGTON     CLOUDY    48  40  73 NW10      30.17S

$$




USA.gov is the U.S. government's official web portal to all federal, state and local government web resources and services.